Dassault Systemes SA EBITDA Margin 2010-2024 | DASTY

Current and historical EBITDA (Earnings Before Interest, Taxes, Depreciation and Amortization) margin for Dassault Systemes SA (DASTY) over the last 10 years. The current EBITDA margin for Dassault Systemes SA as of March 31, 2024 is .
Dassault Systemes SA EBITDA Margin Historical Data
Date TTM Revenue TTM EBITDA EBITDA Margin
2024-03-31 $6.10B $1.58B 25.85%
2023-09-30 $5.96B $1.61B 27.00%
2023-03-31 $5.98B $1.84B 30.81%
2022-09-30 $5.81B $1.81B 31.11%
2022-03-31 $5.82B $1.98B 34.08%
2021-12-31 $5.75B $1.89B 32.85%
2021-09-30 $5.63B $1.83B 32.40%
2021-06-30 $5.47B $1.72B 31.38%
2021-03-31 $5.25B $1.56B 29.62%
2020-12-31 $5.09B $1.46B 28.62%
2020-09-30 $4.95B $1.36B 27.54%
2020-06-30 $4.76B $1.34B 28.18%
2020-03-31 $4.66B $1.36B 29.14%
2019-12-31 $4.50B $1.35B 30.09%
2019-09-30 $4.39B $1.28B 29.24%
2019-06-30 $4.33B $1.24B 28.69%
2019-03-31 $4.25B $1.22B 28.73%
2018-12-31 $4.11B $1.11B 27.05%
2018-09-30 $3.98B $1.16B 29.08%
2018-06-30 $3.90B $1.15B 29.43%
2018-03-31 $3.79B $1.11B 29.43%
2017-12-31 $3.65B $1.07B 29.32%
2017-09-30 $3.53B $1.00B 28.25%
2017-06-30 $3.46B $0.92B 26.45%
2017-03-31 $3.43B $0.85B 24.85%
2016-12-31 $3.38B $0.86B 25.38%
2016-09-30 $3.25B $0.73B 22.48%
2016-06-30 $3.18B $0.78B 24.47%
2016-03-31 $3.12B $0.83B 26.45%
2015-12-31 $3.15B $0.88B 27.90%
2015-09-30 $3.11B $0.87B 27.88%
2015-06-30 $3.07B $0.80B 25.96%
2015-03-31 $3.03B $0.77B 25.23%
2014-12-31 $2.93B $0.69B 23.39%
2014-09-30 $2.92B $0.79B 26.98%
2014-06-30 $2.89B $0.86B 29.70%
2014-03-31 $2.83B $0.87B 30.82%
2013-12-31 $2.77B $0.88B 31.73%
2013-09-30 $2.77B $0.89B 32.32%
2013-06-30 $2.73B $0.87B 31.89%
2013-03-31 $2.65B $0.83B 31.16%
2012-12-31 $2.63B $0.84B 31.77%
2012-09-30 $2.55B $0.64B 25.07%
2012-06-30 $2.50B $0.61B 24.57%
2012-03-31 $2.51B $0.63B 25.00%
2011-12-31 $2.46B $0.61B 24.74%
2011-09-30 $2.41B $0.74B 30.53%
2011-06-30 $2.33B $0.69B 29.55%
2011-03-31 $2.21B $0.64B 29.00%
2010-12-31 $2.07B $0.55B 26.68%
2010-09-30 $1.94B $0.47B 24.20%
2010-06-30 $1.85B $0.43B 23.32%
2010-03-31 $1.79B $0.40B 22.34%
2009-12-31 $1.78B $0.41B 22.81%
Sector Industry Market Cap Revenue
Computer and Technology Computer Software $50.191B $6.441B
Dassault Systemes is a worldwide recognized leader in CAD/CAM/CAE and PDM II markets. The company's mission to provide solutions to enable customersto build their digital enterprise, by defining, simulating, managing and optimizing concurrently product, manufacturing process, and resources. In this virtual space, customers create innovative, high quality, safe and affordable products. The company delivers scaleable process and design-centric solutions on both Unix and Windows NT environments.
Stock Name Country Market Cap PE Ratio
Microsoft (MSFT) United States $3248.735B 37.85
Oracle (ORCL) United States $381.852B 31.00
Adobe (ADBE) United States $244.313B 39.53
Salesforce (CRM) United States $239.953B 35.73
Intuit (INTU) United States $177.948B 55.45
Synopsys (SNPS) United States $86.279B 59.46
Cadence Design Systems (CDNS) United States $76.265B 72.53
Autodesk (ADSK) United States $52.250B 47.63
MicroStrategy (MSTR) United States $31.545B 0.00
ANSYS (ANSS) United States $27.459B 50.81
PTC (PTC) United States $21.058B 55.85
SS&C Technologies Holdings (SSNC) United States $16.459B 15.59
Manhattan Associates (MANH) United States $13.459B 71.43
Descartes Systems Group (DSGX) Canada $8.488B 71.01
Open Text (OTEX) Canada $8.286B 8.50
Trend Micro (TMICY) Japan $6.411B 46.43
CommVault Systems (CVLT) United States $5.299B 85.87
Pegasystems (PEGA) United States $5.074B 44.86
ACI Worldwide (ACIW) United States $4.369B 20.93
Blackbaud (BLKB) United States $3.993B 34.38
Progress Software (PRGS) United States $2.376B 15.26
Sapiens (SPNS) Israel $2.193B 29.91
Verint Systems (VRNT) United States $2.091B 19.58
BlackBerry (BB) Canada $1.429B 0.00
PROS Holdings (PRO) United States $1.109B 0.00
Simulations Plus (SLP) United States $0.791B 59.01
Rand Worldwide (RWWI) United States $0.663B 0.00
Magic Software Enterprises (MGIC) Israel $0.544B 11.54
Canaan (CAN) China $0.339B 0.00
American Software (AMSWA) United States $0.320B 27.49
OptimizeRx (OPRX) United States $0.183B 0.00
Rigetti Computing (RGTI) United States $0.179B 0.00
Neonode (NEON) Sweden $0.048B 0.00
Icad Inc (ICAD) United States $0.035B 0.00
NetSol Technologies (NTWK) United States $0.032B 0.00
Wetouch Technology (WETH) $0.026B 0.00
Smith Micro Software (SMSI) United States $0.022B 0.00
Hanryu Holdings (HRYU) South Korea $0.014B 0.00
GSE Systems (GVP) United States $0.011B 0.00
SAP SE (SAP) Germany $0.000B 50.44